THORAD DELTA 1 DEB, 8152

Orbit data source: Space-Track

THORAD DELTA 1 DEB, 8152 is space debris in SSO originally from a launch on Fri, 15 Nov 1974 UTC launched from the Air Force Western Test Range (AFWTR). Debris objects in space refer to the collection of defunct objects orbiting the Earth. Examples of debris include non-operational satellites, rocket bodies, and fragments generated from explosions, collisions, or faulty payload assembly.

Loading next visibility...
Identifier
8152, 1974-089S
Orbit
SSO
Country
Flag of USUS
Related business
Manufacturer
Unknown
Mission
Spacecraft
Bus & Motor
Unknown
Mass
Unknown
Launch date (UTC)
1974-11-15 (52 years ago)
Launch vehicle
Unknown
Launch site
Air Force Western Test Range (AFWTR)
Object type
Payload
Rocket body
Debris
Shape & HBR
Unknown shape, 0.1 m
Radar Cross Section
Medium (>0.1 m² and <1 m²)

Expand to show TLE details & history
Last TLE update: 6 days ago

TLE from 6 days ago
0 THORAD DELTA 1 DEB
1 08152U 74089S   26154.99156497 -.00000002  00000-0  25111-3 0  9998
2 08152 101.8484 163.5039 0059853  19.5217  37.3613 12.60143308369027
Epoch: 2026-06-03T23:47Z
TLE epoch observation values (Epoch: 2026-06-03T23:47:51.213Z)
Latitude
55.54187°
Longitude
-103.61258°
Altitude
1,394.363 km
Speed
7.185 km/s
True Right ascension
09h 43m 10s
True Declination
55° 23' 40"
Sunlit
Object was in daylight at epoch
Visualization orbit readout
Latitude
Unknown
Longitude
Unknown
Altitude
Unknown
Speed
Unknown
Apparent Right ascension
Unknown
Apparent Declination
Unknown
Sunlit
N/A
Visualization observer readout
Local Sidereal Time
19:19:19
Azimuth
Unknown
Elevation
Unknown
Doppler factor
Unknown
Orbital elements
Apogee altitude
1,466.566 km
Perigee altitude
1,373.219 km
Semi-major axis
7,798.029 km
Eccentricity
0.00599
Inclination
101.8484°
RAAN
163.5039°
Arg. of periapsis
19.5217°
True anomaly
37.78°
Mean anomaly
37.3613°
Eccentric anomaly
37.5704°
Mean motion
3.15185 °/min
Orbital period
114.22 mins
BSTAR
0.00025111
Loading maneuver chart data...
Computing Atmospheric mass density...

Documentation

Showing up to 5 results
|